| time (UTC) | temp F | wind direction | speed knots | gust knots | rain 1hr in | rain 24hr in | rain mn in | humidity % | barometer mb |
| 20260509022144 | 54 | 284 | 2.6 | 2.6 | 0.07 | 0.07 | 0.07 | 97 | |
| 20260509021640 | 54 | 261 | 1.7 | 2.6 | 0.07 | 0.07 | 0.07 | 97 | |
| 20260509021138 | 54 | 259 | 0.9 | 2.6 | 0.07 | 0.06 | 0.06 | 97 | |
| 20260509020636 | 54 | 247 | 1.7 | 1.7 | 0.07 | 0.06 | 0.06 | 97 | 1011.7 |
| 20260509020133 | 54 | 271 | 1.7 | 1.7 | 0.05 | 0.05 | 0.05 | 96 | 1011.7 |
| 20260509015632 | 54 | 282 | 0.9 | 1.7 | 0.05 | 0.05 | 0.05 | 96 | 1011.7 |
| 20260509015129 | 54 | 249 | 0.9 | 0.9 | 0.07 | 0.04 | 0.04 | 96 | 1011.7 |
| 20260509014625 | 53 | 248 | 0.0 | 0.0 | 0.07 | 0.04 | 0.04 | 96 | 1011.7 |
| 20260509014121 | 53 | 252 | 0.0 | 0.9 | 0.00 | 0.03 | 0.03 | 96 | 1011.7 |
| 20260509013619 | 53 | 256 | 0.0 | 0.9 | 0.00 | 0.03 | 0.03 | 96 | 1011.7 |
| 20260509013114 | 53 | 236 | 0.0 | 0.0 | 0.00 | 0.03 | 0.03 | 96 | 1011.7 |
| 20260509012611 | 53 | 239 | 0.0 | 0.0 | 0.05 | 0.03 | 0.03 | 96 | 1011.7 |
| 20260509012108 | 54 | 236 | 0.0 | 0.0 | 0.05 | 0.03 | 0.03 | 95 | 1011.7 |
| 20260509011606 | 54 | 236 | 0.0 | 0.0 | 0.00 | 0.02 | 0.02 | 95 | 1011.7 |
| 20260509011103 | 54 | 227 | 0.0 | 0.9 | 0.00 | 0.02 | 0.02 | 94 | 1011.7 |
| 20260509010601 | 54 | 236 | 0.0 | 0.0 | 0.00 | 0.02 | 0.02 | 93 | 1011.5 |
| 20260509010057 | 54 | 238 | 0.0 | 0.0 | 0.00 | 0.02 | 0.02 | 93 | 1011.5 |
| 20260509005555 | 55 | 238 | 0.0 | 0.0 | 0.07 | 0.02 | 0.02 | 92 | 1011.5 |
| 20260509005050 | 55 | 245 | 0.0 | 0.0 | 0.00 | 0.01 | 0.01 | 91 | 1011.5 |
| 20260509004547 | 55 | 248 | 0.0 | 0.0 | 0.00 | 0.01 | 0.01 | 90 | 1011.5 |
| 20260509004044 | 55 | 250 | 0.0 | 0.0 | 0.00 | 0.01 | 0.01 | 90 | 1011.4 |
| 20260509003542 | 55 | 250 | 0.0 | 0.0 | 0.00 | 0.01 | 0.01 | 89 | 1011.4 |
| 20260509003039 | 55 | 258 | 0.0 | 0.0 | 0.05 | 0.01 | 0.01 | 88 | 1011.4 |
| 20260509002537 | 55 | 269 | 0.0 | 0.0 | 0.00 | 0.00 | 0.00 | 87 | 1011.4 |
| 20260509002034 | 56 | 288 | 0.0 | 0.0 | 0.00 | 0.00 | 0.00 | 86 | 1011.4 |
| 20260509001531 | 56 | 283 | 0.0 | 0.9 | 0.00 | 0.00 | 0.00 | 85 | 1011.4 |
| 20260509001027 | 56 | 291 | 1.7 | 1.7 | 0.00 | 0.00 | 0.00 | 84 | |
| 20260509000526 | 57 | 313 | 2.6 | 2.6 | 0.00 | 0.00 | 0.00 | 83 | |
| 20260509000021 | 57 | 272 | 1.7 | 2.6 | 0.00 | 0.00 | 0.00 | 81 | |
| 20260508235519 | 57 | 261 | 3.5 | 4.3 | 0.00 | 0.00 | 0.00 | 80 | |
| 20260508235015 | 58 | 271 | 2.6 | 4.3 | 0.00 | 0.00 | 0.00 | 78 | |
| 20260508234513 | 58 | 268 | 4.3 | 6.1 | 0.00 | 0.00 | 0.00 | 74 | |
| 20260508234010 | 59 | 246 | 2.6 | 2.6 | 0.00 | 0.00 | 0.00 | 72 | |
| 20260508233509 | 59 | 287 | 3.5 | 4.3 | 0.00 | 0.00 | 0.00 | 71 | |
| 20260508233006 | 60 | 282 | 4.3 | 7.0 | 0.00 | 0.00 | 0.00 | 67 | |
| 20260508232503 | 60 | 268 | 4.3 | 6.1 | 0.00 | 0.00 | 0.00 | 67 | |
| 20260508231959 | 59 | 265 | 2.6 | 4.3 | 0.00 | 0.00 | 0.00 | 69 | |
| 20260508231457 | 59 | 257 | 0.0 | 0.9 | 0.00 | 0.00 | 0.00 | 73 | |
| 20260508230954 | 60 | 232 | 0.0 | 0.0 | 0.00 | 0.00 | 0.00 | 75 | |
| 20260508230450 | 60 | 222 | 0.0 | 0.0 | 0.00 | 0.00 | 0.00 | 68 | |
| 20260508225947 | 60 | 222 | 0.0 | 0.0 | 0.00 | 0.00 | 0.00 | 66 | |
| 20260508225444 | 60 | 238 | 0.0 | 0.0 | 0.00 | 0.00 | 0.00 | 64 | |
| 20260508224941 | 60 | 232 | 0.0 | 0.0 | 0.00 | 0.00 | 0.00 | 66 | |
| 20260508224439 | 60 | 223 | 0.0 | 0.0 | 0.00 | 0.00 | 0.00 | 65 | |
| 20260508223936 | 61 | 224 | 0.0 | 0.0 | 0.00 | 0.00 | 0.00 | 63 | |
| 20260508223434 | 60 | 221 | 0.0 | 0.0 | 0.00 | 0.00 | 0.00 | 64 | |
| 20260508222931 | 61 | 224 | 0.0 | 0.0 | 0.00 | 0.00 | 0.00 | 64 | |
| 20260508222428 | 61 | 226 | 0.0 | 0.0 | 0.00 | 0.00 | 0.00 | 63 | 1011.1 |
| 20260508221925 | 61 | 226 | 0.0 | 0.0 | 0.00 | 0.00 | 0.00 | 62 | 1011.1 |
| 20260508221421 | 60 | 228 | 0.0 | 0.0 | 0.00 | 0.00 | 0.00 | 62 | 1011.1 |
| 20260508220917 | 60 | 228 | 0.0 | 0.0 | 0.00 | 0.00 | 0.00 | 63 | 1011.1 |
| 20260508220414 | 60 | 228 | 0.0 | 0.0 | 0.00 | 0.00 | 0.00 | 63 | 1011.1 |
| 20260508215910 | 60 | 227 | 0.0 | 0.0 | 0.00 | 0.00 | 0.00 | 65 | 1011.1 |
| 20260508215408 | 61 | 227 | 0.0 | 0.0 | 0.00 | 0.00 | 0.00 | 67 | 1011.1 |
| 20260508214904 | 61 | 246 | 0.0 | 0.0 | 0.00 | 0.00 | 0.00 | 66 | 1011.1 |
| 20260508214402 | 61 | 232 | 0.0 | 0.0 | 0.00 | 0.00 | 0.00 | 66 | 1011.1 |
| 20260508213857 | 62 | 238 | 0.0 | 0.0 | 0.00 | 0.00 | 0.00 | 65 | 1011.1 |
| 20260508213355 | 62 | 225 | 0.0 | 0.0 | 0.00 | 0.00 | 0.00 | 65 | 1011.1 |
| 20260508212850 | 62 | 247 | 0.0 | 0.9 | 0.00 | 0.00 | 0.00 | 63 | 1011.1 |
| 20260508212347 | 62 | 224 | 0.0 | 0.9 | 0.00 | 0.00 | 0.00 | 62 | 1011.4 |
| 20260508211843 | 62 | 258 | 0.9 | 1.7 | 0.00 | 0.00 | 0.00 | 59 | 1011.4 |
| 20260508211339 | 62 | 271 | 1.7 | 2.6 | 0.00 | 0.00 | 0.00 | 57 | 1011.4 |
| 20260508210836 | 63 | 258 | 0.9 | 1.7 | 0.00 | 0.00 | 0.00 | 58 | 1011.4 |
| 20260508210333 | 62 | 252 | 0.9 | 1.7 | 0.00 | 0.00 | 0.00 | 57 | 1011.4 |
| 20260508205829 | 63 | 261 | 0.9 | 0.9 | 0.00 | 0.00 | 0.00 | 59 | 1011.4 |
| 20260508205326 | 63 | 256 | 0.9 | 1.7 | 0.00 | 0.00 | 0.00 | 57 | 1011.7 |
| 20260508204817 | 63 | 244 | 0.9 | 2.6 | 0.00 | 0.00 | 0.00 | 58 | 1011.7 |
| 20260508204314 | 63 | 248 | 2.6 | 4.3 | 0.00 | 0.00 | 0.00 | 58 | 1011.7 |
| 20260508203810 | 63 | 275 | 1.7 | 2.6 | 0.00 | 0.00 | 0.00 | 57 | 1011.6 |
| 20260508203306 | 63 | 255 | 1.7 | 1.7 | 0.00 | 0.00 | 0.00 | 57 | 1011.6 |
| 20260508202802 | 63 | 259 | 2.6 | 4.3 | 0.00 | 0.00 | 0.00 | 54 | 1012.0 |
| 20260508202259 | 63 | 280 | 2.6 | 2.6 | 0.00 | 0.00 | 0.00 | 55 | 1012.0 |
| 20260508201756 | 63 | 258 | 1.7 | 4.3 | 0.00 | 0.00 | 0.00 | 56 | 1012.0 |
| 20260508201253 | 63 | 259 | 1.7 | 2.6 | 0.00 | 0.00 | 0.00 | 57 | 1012.0 |
| 20260508200750 | 63 | 257 | 2.6 | 4.3 | 0.00 | 0.00 | 0.00 | 55 | 1012.0 |
| 20260508200246 | 63 | 261 | 2.6 | 2.6 | 0.00 | 0.00 | 0.00 | 54 | 1012.0 |
| 20260508195742 | 63 | 268 | 2.6 | 5.2 | 0.00 | 0.00 | 0.00 | 54 | 1012.0 |
| 20260508195239 | 64 | 271 | 3.5 | 6.1 | 0.00 | 0.00 | 0.00 | 53 | 1012.2 |
| 20260508194735 | 64 | 263 | 3.5 | 5.2 | 0.00 | 0.00 | 0.00 | 53 | 1012.2 |
| 20260508194232 | 64 | 256 | 3.5 | 5.2 | 0.00 | 0.00 | 0.00 | 53 | 1012.2 |
| 20260508193730 | 64 | 268 | 4.3 | 7.0 | 0.00 | 0.00 | 0.00 | 54 | 1012.2 |
| 20260508193226 | 64 | 276 | 4.3 | 7.0 | 0.00 | 0.00 | 0.00 | 52 | 1012.2 |
| 20260508192722 | 64 | 261 | 4.3 | 5.2 | 0.00 | 0.00 | 0.00 | 52 | 1012.2 |
| 20260508192220 | 65 | 264 | 4.3 | 7.0 | 0.00 | 0.00 | 0.00 | 53 | 1012.2 |
| 20260508191717 | 65 | 255 | 4.3 | 6.1 | 0.00 | 0.00 | 0.00 | 52 | 1012.2 |
| 20260508191214 | 65 | 262 | 4.3 | 7.0 | 0.00 | 0.00 | 0.00 | 51 | 1012.2 |
| 20260508190711 | 65 | 267 | 4.3 | 5.2 | 0.00 | 0.00 | 0.00 | 52 | |
| 20260508190207 | 64 | 259 | 2.6 | 5.2 | 0.00 | 0.00 | 0.00 | 53 | |
| 20260508185704 | 64 | 258 | 4.3 | 6.1 | 0.00 | 0.00 | 0.00 | 51 | |
| 20260508185201 | 65 | 269 | 4.3 | 5.2 | 0.00 | 0.00 | 0.00 | 54 | |
| 20260508184658 | 65 | 257 | 4.3 | 5.2 | 0.00 | 0.00 | 0.00 | 53 | |
| 20260508184156 | 65 | 260 | 3.5 | 5.2 | 0.00 | 0.00 | 0.00 | 52 | |
| 20260508183652 | 66 | 269 | 5.2 | 7.8 | 0.00 | 0.00 | 0.00 | 50 | |
| 20260508183148 | 66 | 266 | 5.2 | 7.8 | 0.00 | 0.00 | 0.00 | 51 | |
| 20260508182644 | 66 | 255 | 2.6 | 5.2 | 0.00 | 0.00 | 0.00 | 53 | 1013.6 |
| 20260508182141 | 66 | 236 | 2.6 | 4.3 | 0.00 | 0.00 | 0.00 | 53 | 1013.6 |
| 20260508181636 | 66 | 259 | 3.5 | 6.1 | 0.00 | 0.00 | 0.00 | 55 | 1013.6 |
| 20260508181134 | 66 | 275 | 4.3 | 5.2 | 0.00 | 0.00 | 0.00 | 52 | 1013.6 |
| 20260508180630 | 66 | 263 | 2.6 | 4.3 | 0.00 | 0.00 | 0.00 | 56 | 1013.6 |
| 20260508180127 | 64 | 260 | 4.3 | 5.2 | 0.00 | 0.00 | 0.00 | 53 | 1013.6 |
| 20260508175624 | 64 | 259 | 3.5 | 5.2 | 0.00 | 0.00 | 0.00 | 53 | 1013.6 |
| 20260508175121 | 63 | 261 | 2.6 | 5.2 | 0.00 | 0.00 | 0.00 | 55 | 1013.6 |
| 20260508174618 | 63 | 245 | 5.2 | 7.0 | 0.00 | 0.00 | 0.00 | 53 | 1013.6 |
| 20260508174115 | 64 | 275 | 4.3 | 6.1 | 0.00 | 0.00 | 0.00 | 54 | 1013.6 |
| 20260508173612 | 64 | 267 | 2.6 | 4.3 | 0.00 | 0.00 | 0.00 | 54 | 1013.6 |
| 20260508173108 | 65 | 258 | 6.1 | 7.8 | 0.00 | 0.00 | 0.00 | 54 | 1013.6 |
| 20260508172606 | 64 | 257 | 3.5 | 5.2 | 0.00 | 0.00 | 0.00 | 55 | 1013.6 |
| 20260508172102 | 64 | 265 | 3.5 | 7.0 | 0.00 | 0.00 | 0.00 | 54 | 1014.7 |
| 20260508171558 | 66 | 255 | 5.2 | 6.1 | 0.00 | 0.00 | 0.00 | 51 | 1014.7 |
| 20260508171055 | 66 | 258 | 4.3 | 6.1 | 0.00 | 0.00 | 0.00 | 53 | 1014.7 |
| 20260508170553 | 64 | 256 | 5.2 | 6.1 | 0.00 | 0.00 | 0.00 | 53 | 1014.7 |
| 20260508170050 | 64 | 267 | 3.5 | 7.0 | 0.00 | 0.00 | 0.00 | 53 | 1014.7 |
| 20260508165547 | 64 | 251 | 4.3 | 7.0 | 0.00 | 0.00 | 0.00 | 54 | 1014.7 |
| 20260508165044 | 64 | 263 | 6.1 | 7.8 | 0.00 | 0.00 | 0.00 | 53 | 1014.7 |
| 20260508164540 | 64 | 270 | 3.5 | 5.2 | 0.00 | 0.00 | 0.00 | 54 | 1014.7 |
| 20260508164037 | 64 | 269 | 5.2 | 6.1 | 0.00 | 0.00 | 0.00 | 54 | 1014.7 |
| 20260508163534 | 64 | 258 | 4.3 | 5.2 | 0.00 | 0.00 | 0.00 | 55 | 1014.7 |
| 20260508163031 | 64 | 261 | 4.3 | 6.1 | 0.00 | 0.00 | 0.00 | 53 | 1014.5 |
| 20260508162528 | 63 | 257 | 6.1 | 7.0 | 0.00 | 0.00 | 0.00 | 53 | 1014.5 |
| 20260508162025 | 63 | 264 | 4.3 | 7.8 | 0.00 | 0.00 | 0.00 | 53 | 1014.7 |
| 20260508161522 | 63 | 273 | 5.2 | 7.0 | 0.00 | 0.00 | 0.00 | 53 | 1014.7 |
| 20260508161019 | 63 | 262 | 6.1 | 7.0 | 0.00 | 0.00 | 0.00 | 54 | 1014.7 |
| 20260508160517 | 62 | 264 | 5.2 | 7.0 | 0.00 | 0.00 | 0.00 | 56 | 1014.7 |
| 20260508160014 | 62 | 271 | 6.1 | 7.0 | 0.00 | 0.00 | 0.00 | 54 | |
| 20260508155511 | 62 | 266 | 5.2 | 7.0 | 0.00 | 0.00 | 0.00 | 54 | |
| 20260508155008 | 63 | 271 | 6.1 | 8.7 | 0.00 | 0.00 | 0.00 | 54 | |
| 20260508154505 | 63 | 272 | 4.3 | 6.1 | 0.00 | 0.00 | 0.00 | 54 | |
| 20260508154002 | 63 | 271 | 5.2 | 6.1 | 0.00 | 0.00 | 0.00 | 55 | |
| 20260508153458 | 62 | 267 | 6.1 | 7.0 | 0.00 | 0.00 | 0.00 | 55 | |
| 20260508152955 | 62 | 259 | 6.1 | 7.8 | 0.00 | 0.00 | 0.00 | 55 | |
| 20260508152452 | 62 | 272 | 4.3 | 7.0 | 0.00 | 0.00 | 0.00 | 56 | |
| 20260508151948 | 62 | 259 | 4.3 | 6.1 | 0.00 | 0.00 | 0.00 | 59 | |
| 20260508151444 | 62 | 268 | 3.5 | 5.2 | 0.00 | 0.00 | 0.00 | 57 | |
| 20260508150941 | 62 | 275 | 2.6 | 4.3 | 0.00 | 0.00 | 0.00 | 62 | |
| 20260508150438 | 60 | 277 | 4.3 | 6.1 | 0.00 | 0.00 | 0.00 | 58 | |
| 20260508145933 | 60 | 268 | 6.1 | 6.1 | 0.00 | 0.00 | 0.00 | 59 | |
| 20260508145430 | 59 | 259 | 5.2 | 6.1 | 0.00 | 0.00 | 0.00 | 58 | |
| 20260508144927 | 59 | 269 | 3.5 | 5.2 | 0.00 | 0.00 | 0.00 | 59 | |
| 20260508144425 | 59 | 262 | 3.5 | 6.1 | 0.00 | 0.00 | 0.00 | 61 | |
| 20260508143923 | 58 | 278 | 4.3 | 6.1 | 0.00 | 0.00 | 0.00 | 60 | |
| 20260508143420 | 58 | 268 | 3.5 | 7.0 | 0.00 | 0.00 | 0.00 | 60 | |
| 20260508142916 | 58 | 256 | 4.3 | 6.1 | 0.00 | 0.00 | 0.00 | 59 | |
| 20260508142413 | 58 | 255 | 2.6 | 4.3 | 0.00 | 0.00 | 0.00 | 61 | |
| 20260508141909 | 58 | 270 | 3.5 | 6.1 | 0.00 | 0.00 | 0.00 | 59 | |
| 20260508141406 | 58 | 273 | 3.5 | 4.3 | 0.00 | 0.00 | 0.00 | 60 | |
| 20260508140904 | 59 | 239 | 1.7 | 5.2 | 0.00 | 0.00 | 0.00 | 58 | |
| 20260508140401 | 58 | 256 | 4.3 | 5.2 | 0.00 | 0.00 | 0.00 | 59 | |
| 20260508135856 | 58 | 269 | 2.6 | 6.1 | 0.00 | 0.00 | 0.00 | 60 | |
| 20260508135353 | 57 | 268 | 5.2 | 7.8 | 0.00 | 0.00 | 0.00 | 57 | |
| 20260508134849 | 58 | 260 | 3.5 | 6.1 | 0.00 | 0.00 | 0.00 | 58 | |
| 20260508134346 | 59 | 250 | 3.5 | 5.2 | 0.00 | 0.00 | 0.00 | 58 | |
| 20260508133842 | 57 | 283 | 3.5 | 5.2 | 0.00 | 0.00 | 0.00 | 61 | |
| 20260508133341 | 58 | 262 | 2.6 | 4.3 | 0.00 | 0.00 | 0.00 | 62 | |
| 20260508132837 | 57 | 258 | 4.3 | 6.1 | 0.00 | 0.00 | 0.00 | 61 | |
| 20260508132335 | 56 | 253 | 1.7 | 4.3 | 0.00 | 0.00 | 0.00 | 61 | |
| 20260508131832 | 55 | 269 | 2.6 | 4.3 | 0.00 | 0.00 | 0.00 | 61 | |
| 20260508131327 | 55 | 269 | 2.6 | 4.3 | 0.00 | 0.00 | 0.00 | 60 | |
| 20260508130824 | 55 | 257 | 3.5 | 5.2 | 0.00 | 0.00 | 0.00 | 61 | |
| 20260508130321 | 55 | 257 | 2.6 | 5.2 | 0.00 | 0.00 | 0.00 | 63 | |
| 20260508125817 | 55 | 245 | 1.7 | 4.3 | 0.00 | 0.00 | 0.00 | 64 | |
| 20260508125314 | 55 | 258 | 0.9 | 1.7 | 0.00 | 0.00 | 0.00 | 66 | |
| 20260508124812 | 54 | 287 | 1.7 | 4.3 | 0.00 | 0.00 | 0.00 | 63 | |
| 20260508124308 | 53 | 253 | 0.9 | 2.6 | 0.00 | 0.00 | 0.00 | 65 | |
| 20260508123807 | 53 | 267 | 0.9 | 1.7 | 0.00 | 0.00 | 0.00 | 66 | 1015.2 |
| 20260508123305 | 53 | 256 | 0.9 | 1.7 | 0.00 | 0.00 | 0.00 | 66 | 1015.2 |
| 20260508122800 | 52 | 241 | 0.9 | 2.6 | 0.00 | 0.00 | 0.00 | 68 | 1015.2 |
| 20260508122257 | 53 | 259 | 1.7 | 1.7 | 0.00 | 0.00 | 0.00 | 65 | 1015.2 |
| 20260508121755 | 51 | 243 | 0.9 | 1.7 | 0.00 | 0.00 | 0.00 | 70 | 1015.2 |
| 20260508121253 | 51 | 245 | 0.9 | 0.9 | 0.00 | 0.00 | 0.00 | 72 | 1015.2 |
| 20260508120750 | 51 | 266 | 0.0 | 0.9 | 0.00 | 0.00 | 0.00 | 68 | 1015.2 |
| 20260508120249 | 50 | 260 | 0.0 | 1.7 | 0.00 | 0.00 | 0.00 | 70 | 1015.2 |
| 20260508115746 | 50 | 254 | 0.9 | 1.7 | 0.00 | 0.00 | 0.00 | 71 | 1015.2 |
| 20260508115243 | 50 | 254 | 0.9 | 1.7 | 0.00 | 0.00 | 0.00 | 71 | 1015.2 |
| 20260508114739 | 49 | 256 | 0.9 | 1.7 | 0.00 | 0.00 | 0.00 | 72 | 1015.2 |
| 20260508114236 | 50 | 250 | 0.9 | 1.7 | 0.00 | 0.00 | 0.00 | 71 | 1015.2 |
| 20260508113732 | 50 | 257 | 0.9 | 1.7 | 0.00 | 0.00 | 0.00 | 70 | |
| 20260508113231 | 50 | 258 | 0.9 | 1.7 | 0.00 | 0.00 | 0.00 | 70 | |
| 20260508112727 | 50 | 253 | 0.9 | 1.7 | 0.00 | 0.00 | 0.00 | 71 | |
| 20260508112224 | 49 | 237 | 0.0 | 1.7 | 0.00 | 0.00 | 0.00 | 73 | |
| 20260508111720 | 49 | 240 | 1.7 | 1.7 | 0.00 | 0.00 | 0.00 | 72 | |
| 20260508111219 | 49 | 242 | 0.9 | 1.7 | 0.00 | 0.00 | 0.00 | 70 | |
| 20260508110715 | 49 | 247 | 0.9 | 1.7 | 0.00 | 0.00 | 0.00 | 70 | |
| 20260508110212 | 49 | 249 | 0.9 | 1.7 | 0.00 | 0.00 | 0.00 | 71 | |
| 20260508105712 | 49 | 242 | 0.0 | 1.7 | 0.00 | 0.00 | 0.00 | 72 | |
| 20260508105209 | 48 | 247 | 0.9 | 2.6 | 0.00 | 0.00 | 0.00 | 71 | |
| 20260508104707 | 48 | 231 | 1.7 | 1.7 | 0.00 | 0.00 | 0.00 | 70 | |
| 20260508104203 | 48 | 252 | 0.9 | 1.7 | 0.00 | 0.00 | 0.00 | 71 | |
| 20260508103700 | 48 | 249 | 1.7 | 2.6 | 0.00 | 0.00 | 0.00 | 71 | |
| 20260508103158 | 48 | 252 | 1.7 | 1.7 | 0.00 | 0.00 | 0.00 | 72 | |
| 20260508102655 | 48 | 247 | 0.9 | 1.7 | 0.00 | 0.00 | 0.00 | 71 | |
| 20260508102153 | 49 | 251 | 1.7 | 1.7 | 0.00 | 0.00 | 0.00 | 71 | |
| 20260508101649 | 49 | 248 | 1.7 | 1.7 | 0.00 | 0.00 | 0.00 | 70 | |
| 20260508101148 | 48 | 233 | 1.7 | 1.7 | 0.00 | 0.00 | 0.00 | 70 | |
| 20260508100644 | 48 | 230 | 1.7 | 1.7 | 0.00 | 0.00 | 0.00 | 71 | |
| 20260508100143 | 48 | 254 | 1.7 | 1.7 | 0.00 | 0.00 | 0.00 | 70 | |
| 20260508095639 | 48 | 242 | 0.9 | 2.6 | 0.00 | 0.00 | 0.00 | 70 | |
| 20260508095136 | 48 | 234 | 0.9 | 1.7 | 0.00 | 0.00 | 0.00 | 72 | |
| 20260508094633 | 48 | 254 | 0.9 | 1.7 | 0.00 | 0.00 | 0.00 | 71 | |
| 20260508094129 | 48 | 257 | 1.7 | 1.7 | 0.00 | 0.00 | 0.00 | 71 | |
| 20260508093627 | 48 | 261 | 1.7 | 2.6 | 0.00 | 0.00 | 0.00 | 71 | |
| 20260508093124 | 48 | 251 | 1.7 | 1.7 | 0.00 | 0.00 | 0.00 | 72 | |
| 20260508092621 | 48 | 259 | 1.7 | 2.6 | 0.00 | 0.00 | 0.00 | 72 | |
| 20260508092120 | 47 | 251 | 1.7 | 1.7 | 0.00 | 0.00 | 0.00 | 72 | |
| 20260508091617 | 47 | 259 | 1.7 | 1.7 | 0.00 | 0.00 | 0.00 | 73 | |
| 20260508091114 | 47 | 256 | 1.7 | 2.6 | 0.00 | 0.00 | 0.00 | 73 | |
| 20260508090612 | 47 | 267 | 1.7 | 1.7 | 0.00 | 0.00 | 0.00 | 73 | |
| 20260508090109 | 47 | 252 | 2.6 | 2.6 | 0.00 | 0.00 | 0.00 | 74 | |
| 20260508085605 | 47 | 252 | 1.7 | 2.6 | 0.00 | 0.00 | 0.00 | 74 | |
| 20260508085102 | 47 | 273 | 2.6 | 2.6 | 0.00 | 0.00 | 0.00 | 73 | |
| 20260508084559 | 47 | 262 | 1.7 | 1.7 | 0.00 | 0.00 | 0.00 | 73 | |
| 20260508084056 | 47 | 252 | 1.7 | 1.7 | 0.00 | 0.00 | 0.00 | 72 | |
| 20260508083553 | 47 | 258 | 1.7 | 2.6 | 0.00 | 0.00 | 0.00 | 72 | |
| 20260508083050 | 47 | 253 | 0.9 | 1.7 | 0.00 | 0.00 | 0.00 | 73 | |
| 20260508082546 | 46 | 249 | 1.7 | 2.6 | 0.00 | 0.00 | 0.00 | 73 | |
| 20260508082043 | 47 | 258 | 1.7 | 2.6 | 0.00 | 0.00 | 0.00 | 73 | |
| 20260508081541 | 47 | 247 | 1.7 | 1.7 | 0.00 | 0.00 | 0.00 | 73 | |
| 20260508081036 | 47 | 242 | 2.6 | 2.6 | 0.00 | 0.00 | 0.00 | 73 | |
| 20260508080535 | 47 | 252 | 1.7 | 2.6 | 0.00 | 0.00 | 0.00 | 72 | |
| 20260508080032 | 47 | 250 | 1.7 | 1.7 | 0.00 | 0.00 | 0.00 | 73 | |
| 20260508075528 | 47 | 261 | 2.6 | 2.6 | 0.00 | 0.00 | 0.00 | 73 | |
| 20260508075026 | 47 | 246 | 1.7 | 1.7 | 0.00 | 0.00 | 0.00 | 72 | |
| 20260508074523 | 47 | 248 | 0.9 | 2.6 | 0.00 | 0.00 | 0.00 | 71 | |
| 20260508074020 | 47 | 251 | 1.7 | 2.6 | 0.00 | 0.00 | 0.00 | 71 | |
| 20260508073517 | 47 | 252 | 1.7 | 1.7 | 0.00 | 0.00 | 0.00 | 71 | |
| 20260508073015 | 47 | 273 | 1.7 | 1.7 | 0.00 | 0.00 | 0.00 | 71 | |
| 20260508072510 | 47 | 256 | 1.7 | 1.7 | 0.00 | 0.00 | 0.00 | 71 | |
| 20260508072008 | 47 | 256 | 0.9 | 1.7 | 0.00 | 0.00 | 0.00 | 71 | |
| 20260508071506 | 48 | 260 | 1.7 | 1.7 | 0.00 | 0.00 | 0.00 | 70 | |
| 20260508071003 | 48 | 256 | 1.7 | 2.6 | 0.00 | 0.00 | 0.00 | 70 | |
| 20260508070500 | 48 | 257 | 1.7 | 1.7 | 0.00 | 0.00 | 0.00 | 72 | |
| 20260508065958 | 48 | 261 | 1.7 | 1.7 | 0.00 | 0.00 | 0.00 | 70 | |
| 20260508065456 | 48 | 262 | 1.7 | 2.6 | 0.00 | 0.00 | 0.00 | 68 | |
| 20260508064954 | 48 | 260 | 1.7 | 1.7 | 0.00 | 0.00 | 0.00 | 70 | |
| 20260508064451 | 48 | 258 | 1.7 | 1.7 | 0.00 | 0.00 | 0.00 | 69 | |
| 20260508063949 | 48 | 264 | 1.7 | 2.6 | 0.00 | 0.00 | 0.00 | 69 | |
| 20260508063446 | 48 | 255 | 2.6 | 4.3 | 0.00 | 0.00 | 0.00 | 68 | |
| 20260508062944 | 48 | 255 | 1.7 | 1.7 | 0.00 | 0.00 | 0.00 | 69 | |
| 20260508062441 | 49 | 253 | 2.6 | 2.6 | 0.00 | 0.00 | 0.00 | 69 | |
| 20260508061938 | 49 | 257 | 3.5 | 4.3 | 0.00 | 0.00 | 0.00 | 68 | |
| 20260508061436 | 49 | 260 | 2.6 | 4.3 | 0.00 | 0.00 | 0.00 | 67 | |
| 20260508060932 | 49 | 256 | 2.6 | 2.6 | 0.00 | 0.00 | 0.00 | 67 | |
| 20260508060430 | 49 | 263 | 1.7 | 2.6 | 0.00 | 0.00 | 0.00 | 67 | |
| 20260508055925 | 49 | 242 | 1.7 | 4.3 | 0.00 | 0.00 | 0.00 | 66 | |
| 20260508055422 | 49 | 257 | 2.6 | 2.6 | 0.00 | 0.00 | 0.00 | 66 | |
| 20260508054918 | 49 | 261 | 2.6 | 2.6 | 0.00 | 0.00 | 0.00 | 66 | |
| 20260508054416 | 50 | 250 | 1.7 | 2.6 | 0.00 | 0.00 | 0.00 | 65 | |
| 20260508053913 | 50 | 261 | 2.6 | 4.3 | 0.00 | 0.00 | 0.00 | 65 | |
| 20260508053410 | 50 | 245 | 1.7 | 1.7 | 0.00 | 0.00 | 0.00 | 64 | |
| 20260508052908 | 50 | 246 | 2.6 | 2.6 | 0.00 | 0.00 | 0.00 | 65 | |
| 20260508052405 | 49 | 239 | 1.7 | 2.6 | 0.00 | 0.00 | 0.00 | 65 | |
| 20260508051901 | 49 | 244 | 0.9 | 2.6 | 0.00 | 0.00 | 0.00 | 67 | |
| 20260508051357 | 50 | 235 | 1.7 | 2.6 | 0.00 | 0.00 | 0.00 | 65 | |
| 20260508050853 | 50 | 254 | 1.7 | 1.7 | 0.00 | 0.00 | 0.00 | 66 | |
| 20260508050350 | 50 | 242 | 0.9 | 1.7 | 0.00 | 0.00 | 0.00 | 66 | |
| 20260508045846 | 50 | 252 | 0.9 | 2.6 | 0.00 | 0.00 | 0.00 | 65 | |
| 20260508045344 | 50 | 246 | 2.6 | 2.6 | 0.00 | 0.00 | 0.00 | 64 | |
| 20260508044841 | 50 | 221 | 2.6 | 2.6 | 0.00 | 0.00 | 0.00 | 64 | |
| 20260508044337 | 50 | 233 | 2.6 | 2.6 | 0.00 | 0.00 | 0.00 | 67 | |
| 20260508043833 | 49 | 254 | 1.7 | 2.6 | 0.00 | 0.00 | 0.00 | 67 | |
| 20260508043331 | 49 | 218 | 0.9 | 1.7 | 0.00 | 0.00 | 0.00 | 68 | |
| 20260508042827 | 50 | 224 | 0.0 | 0.9 | 0.00 | 0.00 | 0.00 | 68 | |
| 20260508042325 | 50 | 221 | 0.0 | 1.7 | 0.00 | 0.00 | 0.00 | 69 | |
| 20260508041822 | 50 | 229 | 0.9 | 1.7 | 0.00 | 0.00 | 0.00 | 67 | |
| 20260508041318 | 50 | 249 | 0.9 | 0.9 | 0.00 | 0.00 | 0.00 | 65 | |
| 20260508040815 | 50 | 233 | 0.0 | 0.9 | 0.00 | 0.00 | 0.00 | 66 | |
| 20260508040312 | 50 | 222 | 0.0 | 1.7 | 0.00 | 0.00 | 0.00 | 68 | |
| 20260508035809 | 50 | 239 | 0.9 | 0.9 | 0.00 | 0.00 | 0.00 | 67 | |
| 20260508035307 | 50 | 247 | 0.0 | 0.0 | 0.00 | 0.00 | 0.00 | 70 | |
| 20260508034803 | 51 | 241 | 0.9 | 1.7 | 0.00 | 0.00 | 0.00 | 68 | |
| 20260508034300 | 50 | 240 | 0.0 | 0.9 | 0.00 | 0.00 | 0.00 | 70 | |
| 20260508033757 | 50 | 242 | 0.0 | 0.9 | 0.00 | 0.00 | 0.00 | 71 | |
| 20260508033256 | 50 | 220 | 0.0 | 0.0 | 0.00 | 0.00 | 0.00 | 70 | |
| 20260508032753 | 50 | 225 | 0.0 | 0.0 | 0.00 | 0.00 | 0.00 | 70 | |
| 20260508032250 | 50 | 221 | 0.0 | 0.0 | 0.00 | 0.00 | 0.00 | 70 | |
| 20260508031746 | 50 | 220 | 0.0 | 0.0 | 0.00 | 0.00 | 0.00 | 71 | |
| 20260508031243 | 51 | 224 | 0.0 | 0.0 | 0.00 | 0.00 | 0.00 | 71 | |
| 20260508030739 | 51 | 208 | 0.0 | 0.9 | 0.00 | 0.00 | 0.00 | 71 | |
| 20260508030237 | 51 | 242 | 0.0 | 0.9 | 0.00 | 0.00 | 0.00 | 69 | |
| 20260508025733 | 50 | 244 | 0.0 | 0.0 | 0.00 | 0.00 | 0.00 | 70 | |
| 20260508025230 | 51 | 223 | 0.0 | 0.0 | 0.00 | 0.00 | 0.00 | 74 | |
| 20260508024726 | 51 | 241 | 0.0 | 0.9 | 0.00 | 0.00 | 0.00 | 71 | |
| 20260508024223 | 50 | 230 | 0.0 | 0.0 | 0.00 | 0.00 | 0.00 | 71 | |
| 20260508023720 | 50 | 223 | 0.0 | 0.0 | 0.00 | 0.00 | 0.00 | 72 | |
| 20260508023218 | 51 | 232 | 0.0 | 0.0 | 0.00 | 0.00 | 0.00 | 73 | |
| 20260508022713 | 50 | 239 | 0.0 | 0.0 | 0.00 | 0.00 | 0.00 | 70 |